owner,sensor,date,latitude,longitude,relative_humidity,qcFlag 
DISL,ioos:station:DISL:MBLA:1,2017-06-01T00:00:00Z,30.4367,-88.0117,69.3,1111122 
DISL,ioos:station:DISL:MBLA:1,2017-06-01T00:30:00Z,30.4367,-88.0117,71.77,1111122 
DISL,ioos:station:DISL:MBLA:1,2017-06-01T01:00:00Z,30.4367,-88.0117,70.79,1111122 
DISL,ioos:station:DISL:MBLA:1,2017-06-01T01:30:00Z,30.4367,-88.0117,70.76,1111122 
DISL,ioos:station:DISL:MBLA:1,2017-06-01T02:00:00Z,30.4367,-88.0117,68.96,1111122 
DISL,ioos:station:DISL:MBLA:1,2017-06-01T02:30:00Z,30.4367,-88.0117,72.22,1111122 
DISL,ioos:station:DISL:MBLA:1,2017-06-01T03:00:00Z,30.4367,-88.0117,72.08,1111122 
DISL,ioos:station:DISL:MBLA:1,2017-06-01T03:30:00Z,30.4367,-88.0117,71.13,1111122 
DISL,ioos:station:DISL:MBLA:1,2017-06-01T04:00:00Z,30.4367,-88.0117,72.39,1111122 
DISL,ioos:station:DISL:MBLA:1,2017-06-01T04:30:00Z,30.4367,-88.0117,72.28,1111122 
DISL,ioos:station:DISL:MBLA:1,2017-06-01T05:00:00Z,30.4367,-88.0117,73.33,1111122 
DISL,ioos:station:DISL:MBLA:1,2017-06-01T05:30:00Z,30.4367,-88.0117,74.01,1111122 
DISL,ioos:station:DISL:MBLA:1,2017-06-01T06:00:00Z,30.4367,-88.0117,82.8,1111122 
DISL,ioos:station:DISL:MBLA:1,2017-06-01T06:30:00Z,30.4367,-88.0117,81.4,1111122 
DISL,ioos:station:DISL:MBLA:1,2017-06-01T07:00:00Z,30.4367,-88.0117,79.4,1111122 
DISL,ioos:station:DISL:MBLA:1,2017-06-01T07:30:00Z,30.4367,-88.0117,79.2,1111122 
DISL,ioos:station:DISL:MBLA:1,2017-06-01T08:00:00Z,30.4367,-88.0117,79.74,1111122 
DISL,ioos:station:DISL:MBLA:1,2017-06-01T08:30:00Z,30.4367,-88.0117,79.71,1111122 
DISL,ioos:station:DISL:MBLA:1,2017-06-01T09:00:00Z,30.4367,-88.0117,79.95,1111122 
DISL,ioos:station:DISL:MBLA:1,2017-06-01T09:30:00Z,30.4367,-88.0117,79.06,1111122 
DISL,ioos:station:DISL:MBLA:1,2017-06-01T10:00:00Z,30.4367,-88.0117,80.4,1111122 
DISL,ioos:station:DISL:MBLA:1,2017-06-01T10:30:00Z,30.4367,-88.0117,81.1,1111122 
DISL,ioos:station:DISL:MBLA:1,2017-06-01T11:00:00Z,30.4367,-88.0117,80.5,1111122 
DISL,ioos:station:DISL:MBLA:1,2017-06-01T11:30:00Z,30.4367,-88.0117,80.1,1111122 
DISL,ioos:station:DISL:MBLA:1,2017-06-01T12:00:00Z,30.4367,-88.0117,80.7,1111122 
DISL,ioos:station:DISL:MBLA:1,2017-06-01T12:30:00Z,30.4367,-88.0117,79.5,1111122 
DISL,ioos:station:DISL:MBLA:1,2017-06-01T13:00:00Z,30.4367,-88.0117,79.74,1111122 
DISL,ioos:station:DISL:MBLA:1,2017-06-01T13:30:00Z,30.4367,-88.0117,79.2,1111122 
DISL,ioos:station:DISL:MBLA:1,2017-06-01T14:00:00Z,30.4367,-88.0117,80.3,1111122 
DISL,ioos:station:DISL:MBLA:1,2017-06-01T14:30:00Z,30.4367,-88.0117,80.5,1111122 
DISL,ioos:station:DISL:MBLA:1,2017-06-01T15:00:00Z,30.4367,-88.0117,79.04,1111122 
DISL,ioos:station:DISL:MBLA:1,2017-06-01T15:30:00Z,30.4367,-88.0117,82.0,1111122 
DISL,ioos:station:DISL:MBLA:1,2017-06-01T16:00:00Z,30.4367,-88.0117,82.3,1111122 
DISL,ioos:station:DISL:MBLA:1,2017-06-01T16:30:00Z,30.4367,-88.0117,83.1,1111122 
DISL,ioos:station:DISL:MBLA:1,2017-06-01T17:00:00Z,30.4367,-88.0117,83.4,1111122 
DISL,ioos:station:DISL:MBLA:1,2017-06-01T17:30:00Z,30.4367,-88.0117,83.7,1111122 
DISL,ioos:station:DISL:MBLA:1,2017-06-01T18:00:00Z,30.4367,-88.0117,83.5,1111122 
DISL,ioos:station:DISL:MBLA:1,2017-06-01T18:30:00Z,30.4367,-88.0117,80.9,1111122 
DISL,ioos:station:DISL:MBLA:1,2017-06-01T19:00:00Z,30.4367,-88.0117,77.67,1111122 
DISL,ioos:station:DISL:MBLA:1,2017-06-01T19:30:00Z,30.4367,-88.0117,79.28,1111122 
DISL,ioos:station:DISL:MBLA:1,2017-06-01T20:00:00Z,30.4367,-88.0117,77.92,1111122 
DISL,ioos:station:DISL:MBLA:1,2017-06-01T20:30:00Z,30.4367,-88.0117,70.43,1111122 
DISL,ioos:station:DISL:MBLA:1,2017-06-01T21:00:00Z,30.4367,-88.0117,67.34,1111122 
DISL,ioos:station:DISL:MBLA:1,2017-06-01T21:30:00Z,30.4367,-88.0117,71.76,1111122 
DISL,ioos:station:DISL:MBLA:1,2017-06-01T22:00:00Z,30.4367,-88.0117,75.32,1111122 
DISL,ioos:station:DISL:MBLA:1,2017-06-01T22:30:00Z,30.4367,-88.0117,75.77,1111122 
DISL,ioos:station:DISL:MBLA:1,2017-06-01T23:00:00Z,30.4367,-88.0117,76.59,1111122 
DISL,ioos:station:DISL:MBLA:1,2017-06-01T23:30:00Z,30.4367,-88.0117,75.61,1111122 
DISL,ioos:station:DISL:MBLA:1,2017-06-02T00:00:00Z,30.4367,-88.0117,79.21,1111122 
DISL,ioos:station:DISL:MBLA:1,2017-06-02T00:30:00Z,30.4367,-88.0117,79.61,1111122 
DISL,ioos:station:DISL:MBLA:1,2017-06-02T01:00:00Z,30.4367,-88.0117,80.5,1111122 
DISL,ioos:station:DISL:MBLA:1,2017-06-02T01:30:00Z,30.4367,-88.0117,79.27,1111122 
DISL,ioos:station:DISL:MBLA:1,2017-06-02T02:00:00Z,30.4367,-88.0117,79.27,1111122 
DISL,ioos:station:DISL:MBLA:1,2017-06-02T02:30:00Z,30.4367,-88.0117,80.7,1111122 
DISL,ioos:station:DISL:MBLA:1,2017-06-02T03:00:00Z,30.4367,-88.0117,81.2,1111122 
DISL,ioos:station:DISL:MBLA:1,2017-06-02T03:30:00Z,30.4367,-88.0117,80.1,1111122 
DISL,ioos:station:DISL:MBLA:1,2017-06-02T04:00:00Z,30.4367,-88.0117,82.2,1111122 
DISL,ioos:station:DISL:MBLA:1,2017-06-02T04:30:00Z,30.4367,-88.0117,83.6,1111122 
DISL,ioos:station:DISL:MBLA:1,2017-06-02T05:00:00Z,30.4367,-88.0117,82.4,1111122 
DISL,ioos:station:DISL:MBLA:1,2017-06-02T05:30:00Z,30.4367,-88.0117,82.0,1111122 
DISL,ioos:station:DISL:MBLA:1,2017-06-02T06:00:00Z,30.4367,-88.0117,81.4,1111122 
DISL,ioos:station:DISL:MBLA:1,2017-06-02T06:30:00Z,30.4367,-88.0117,78.97,1111122 
DISL,ioos:station:DISL:MBLA:1,2017-06-02T07:00:00Z,30.4367,-88.0117,76.7,1111122 
DISL,ioos:station:DISL:MBLA:1,2017-06-02T07:30:00Z,30.4367,-88.0117,74.02,1111122 
DISL,ioos:station:DISL:MBLA:1,2017-06-02T08:00:00Z,30.4367,-88.0117,76.83,1111122 
DISL,ioos:station:DISL:MBLA:1,2017-06-02T08:30:00Z,30.4367,-88.0117,79.41,1111122 
DISL,ioos:station:DISL:MBLA:1,2017-06-02T09:00:00Z,30.4367,-88.0117,82.1,1111122 
DISL,ioos:station:DISL:MBLA:1,2017-06-02T09:30:00Z,30.4367,-88.0117,83.9,1111122 
DISL,ioos:station:DISL:MBLA:1,2017-06-02T10:00:00Z,30.4367,-88.0117,84.8,1111122 
DISL,ioos:station:DISL:MBLA:1,2017-06-02T10:30:00Z,30.4367,-88.0117,84.3,1111122 
DISL,ioos:station:DISL:MBLA:1,2017-06-02T11:00:00Z,30.4367,-88.0117,84.0,1111122 
DISL,ioos:station:DISL:MBLA:1,2017-06-02T11:30:00Z,30.4367,-88.0117,83.6,1111122 
DISL,ioos:station:DISL:MBLA:1,2017-06-02T12:00:00Z,30.4367,-88.0117,84.3,1111122 
DISL,ioos:station:DISL:MBLA:1,2017-06-02T12:30:00Z,30.4367,-88.0117,84.9,1111122 
DISL,ioos:station:DISL:MBLA:1,2017-06-02T13:00:00Z,30.4367,-88.0117,86.5,1111122 
DISL,ioos:station:DISL:MBLA:1,2017-06-02T13:30:00Z,30.4367,-88.0117,85.6,1111122 
DISL,ioos:station:DISL:MBLA:1,2017-06-02T14:00:00Z,30.4367,-88.0117,83.5,1111122 
DISL,ioos:station:DISL:MBLA:1,2017-06-02T14:30:00Z,30.4367,-88.0117,82.4,1111122 
DISL,ioos:station:DISL:MBLA:1,2017-06-02T15:00:00Z,30.4367,-88.0117,79.48,1111122 
DISL,ioos:station:DISL:MBLA:1,2017-06-02T15:30:00Z,30.4367,-88.0117,73.24,1111122 
DISL,ioos:station:DISL:MBLA:1,2017-06-02T16:00:00Z,30.4367,-88.0117,71.82,1111122 
DISL,ioos:station:DISL:MBLA:1,2017-06-02T16:30:00Z,30.4367,-88.0117,70.8,1111122 
DISL,ioos:station:DISL:MBLA:1,2017-06-02T17:00:00Z,30.4367,-88.0117,67.55,1111122 
DISL,ioos:station:DISL:MBLA:1,2017-06-02T17:30:00Z,30.4367,-88.0117,66.87,1111122 
DISL,ioos:station:DISL:MBLA:1,2017-06-02T18:00:00Z,30.4367,-88.0117,75.51,1111122 
DISL,ioos:station:DISL:MBLA:1,2017-06-02T18:30:00Z,30.4367,-88.0117,69.38,1111122 
DISL,ioos:station:DISL:MBLA:1,2017-06-02T19:00:00Z,30.4367,-88.0117,73.48,1111122 
DISL,ioos:station:DISL:MBLA:1,2017-06-02T19:30:00Z,30.4367,-88.0117,67.89,1111122 
DISL,ioos:station:DISL:MBLA:1,2017-06-02T20:00:00Z,30.4367,-88.0117,72.23,1111122 
DISL,ioos:station:DISL:MBLA:1,2017-06-02T20:30:00Z,30.4367,-88.0117,68.5,1111122 
DISL,ioos:station:DISL:MBLA:1,2017-06-02T21:00:00Z,30.4367,-88.0117,70.43,1111122 
DISL,ioos:station:DISL:MBLA:1,2017-06-02T21:30:00Z,30.4367,-88.0117,69.95,1111122 
DISL,ioos:station:DISL:MBLA:1,2017-06-02T22:00:00Z,30.4367,-88.0117,68.56,1111122 
DISL,ioos:station:DISL:MBLA:1,2017-06-02T22:30:00Z,30.4367,-88.0117,73.07,1111122 
DISL,ioos:station:DISL:MBLA:1,2017-06-02T23:00:00Z,30.4367,-88.0117,71.92,1111122 
DISL,ioos:station:DISL:MBLA:1,2017-06-02T23:30:00Z,30.4367,-88.0117,73.75,1111122 
DISL,ioos:station:DISL:MBLA:1,2017-06-03T00:00:00Z,30.4367,-88.0117,75.14,1111122 
DISL,ioos:station:DISL:MBLA:1,2017-06-03T00:30:00Z,30.4367,-88.0117,75.24,1111122 
DISL,ioos:station:DISL:MBLA:1,2017-06-03T01:00:00Z,30.4367,-88.0117,74.33,1111122 
DISL,ioos:station:DISL:MBLA:1,2017-06-03T01:30:00Z,30.4367,-88.0117,75.75,1111122 
DISL,ioos:station:DISL:MBLA:1,2017-06-03T02:00:00Z,30.4367,-88.0117,74.56,1111122 
DISL,ioos:station:DISL:MBLA:1,2017-06-03T02:30:00Z,30.4367,-88.0117,76.02,1111122 
DISL,ioos:station:DISL:MBLA:1,2017-06-03T03:00:00Z,30.4367,-88.0117,80.2,1111122 
DISL,ioos:station:DISL:MBLA:1,2017-06-03T03:30:00Z,30.4367,-88.0117,75.12,1111122 
DISL,ioos:station:DISL:MBLA:1,2017-06-03T04:00:00Z,30.4367,-88.0117,74.71,1111122 
DISL,ioos:station:DISL:MBLA:1,2017-06-03T04:30:00Z,30.4367,-88.0117,77.28,1111122 
DISL,ioos:station:DISL:MBLA:1,2017-06-03T05:00:00Z,30.4367,-88.0117,80.3,1111122 
DISL,ioos:station:DISL:MBLA:1,2017-06-03T05:30:00Z,30.4367,-88.0117,81.0,1111122 
DISL,ioos:station:DISL:MBLA:1,2017-06-03T06:00:00Z,30.4367,-88.0117,76.85,1111122 
DISL,ioos:station:DISL:MBLA:1,2017-06-03T06:30:00Z,30.4367,-88.0117,81.0,1111122 
DISL,ioos:station:DISL:MBLA:1,2017-06-03T07:00:00Z,30.4367,-88.0117,77.05,1111122 
DISL,ioos:station:DISL:MBLA:1,2017-06-03T07:30:00Z,30.4367,-88.0117,76.81,1111122 
DISL,ioos:station:DISL:MBLA:1,2017-06-03T08:00:00Z,30.4367,-88.0117,76.81,1111122 
DISL,ioos:station:DISL:MBLA:1,2017-06-03T08:30:00Z,30.4367,-88.0117,72.94,1111122 
DISL,ioos:station:DISL:MBLA:1,2017-06-03T09:00:00Z,30.4367,-88.0117,75.86,1111122 
DISL,ioos:station:DISL:MBLA:1,2017-06-03T09:30:00Z,30.4367,-88.0117,75.21,1111122 
DISL,ioos:station:DISL:MBLA:1,2017-06-03T10:00:00Z,30.4367,-88.0117,76.56,1111122 
DISL,ioos:station:DISL:MBLA:1,2017-06-03T10:30:00Z,30.4367,-88.0117,72.94,1111122 
DISL,ioos:station:DISL:MBLA:1,2017-06-03T11:00:00Z,30.4367,-88.0117,73.58,1111122 
DISL,ioos:station:DISL:MBLA:1,2017-06-03T11:30:00Z,30.4367,-88.0117,73.65,1111122 
DISL,ioos:station:DISL:MBLA:1,2017-06-03T12:00:00Z,30.4367,-88.0117,76.56,1111122 
DISL,ioos:station:DISL:MBLA:1,2017-06-03T12:30:00Z,30.4367,-88.0117,78.73,1111122 
DISL,ioos:station:DISL:MBLA:1,2017-06-03T13:00:00Z,30.4367,-88.0117,75.68,1111122 
DISL,ioos:station:DISL:MBLA:1,2017-06-03T13:30:00Z,30.4367,-88.0117,73.55,1111122 
DISL,ioos:station:DISL:MBLA:1,2017-06-03T14:00:00Z,30.4367,-88.0117,76.83,1111122 
DISL,ioos:station:DISL:MBLA:1,2017-06-03T14:30:00Z,30.4367,-88.0117,74.29,1111122 
DISL,ioos:station:DISL:MBLA:1,2017-06-03T15:00:00Z,30.4367,-88.0117,73.45,1111122 
DISL,ioos:station:DISL:MBLA:1,2017-06-03T15:30:00Z,30.4367,-88.0117,76.26,1111122 
DISL,ioos:station:DISL:MBLA:1,2017-06-03T16:00:00Z,30.4367,-88.0117,78.8,1111122 
DISL,ioos:station:DISL:MBLA:1,2017-06-03T16:30:00Z,30.4367,-88.0117,73.17,1111122 
DISL,ioos:station:DISL:MBLA:1,2017-06-03T17:00:00Z,30.4367,-88.0117,72.33,1111122 
DISL,ioos:station:DISL:MBLA:1,2017-06-03T17:30:00Z,30.4367,-88.0117,71.14,1111122 
DISL,ioos:station:DISL:MBLA:1,2017-06-03T18:00:00Z,30.4367,-88.0117,70.36,1111122 
DISL,ioos:station:DISL:MBLA:1,2017-06-03T18:30:00Z,30.4367,-88.0117,68.02,1111122 
DISL,ioos:station:DISL:MBLA:1,2017-06-03T19:00:00Z,30.4367,-88.0117,74.12,1111122 
DISL,ioos:station:DISL:MBLA:1,2017-06-03T19:30:00Z,30.4367,-88.0117,74.7,1111122 
DISL,ioos:station:DISL:MBLA:1,2017-06-03T20:00:00Z,30.4367,-88.0117,72.46,1111122 
DISL,ioos:station:DISL:MBLA:1,2017-06-03T20:30:00Z,30.4367,-88.0117,72.16,1111122 
DISL,ioos:station:DISL:MBLA:1,2017-06-03T21:00:00Z,30.4367,-88.0117,72.8,1111122 
DISL,ioos:station:DISL:MBLA:1,2017-06-03T21:30:00Z,30.4367,-88.0117,72.84,1111122 
DISL,ioos:station:DISL:MBLA:1,2017-06-03T22:00:00Z,30.4367,-88.0117,72.06,1111122 
DISL,ioos:station:DISL:MBLA:1,2017-06-03T22:30:00Z,30.4367,-88.0117,77.21,1111122 
DISL,ioos:station:DISL:MBLA:1,2017-06-03T23:00:00Z,30.4367,-88.0117,78.63,1111122 
DISL,ioos:station:DISL:MBLA:1,2017-06-03T23:30:00Z,30.4367,-88.0117,78.8,1111122 
DISL,ioos:station:DISL:MBLA:1,2017-06-04T00:00:00Z,30.4367,-88.0117,78.7,1111122 
DISL,ioos:station:DISL:MBLA:1,2017-06-04T00:30:00Z,30.4367,-88.0117,78.66,1111122 
DISL,ioos:station:DISL:MBLA:1,2017-06-04T01:00:00Z,30.4367,-88.0117,82.2,1111122 
DISL,ioos:station:DISL:MBLA:1,2017-06-04T01:30:00Z,30.4367,-88.0117,83.4,1111122 
DISL,ioos:station:DISL:MBLA:1,2017-06-04T02:00:00Z,30.4367,-88.0117,83.3,1111122 
DISL,ioos:station:DISL:MBLA:1,2017-06-04T02:30:00Z,30.4367,-88.0117,82.5,1111122 
DISL,ioos:station:DISL:MBLA:1,2017-06-04T03:00:00Z,30.4367,-88.0117,84.4,1111122 
DISL,ioos:station:DISL:MBLA:1,2017-06-04T03:30:00Z,30.4367,-88.0117,83.9,1111122 
DISL,ioos:station:DISL:MBLA:1,2017-06-04T04:00:00Z,30.4367,-88.0117,81.8,1111122 
DISL,ioos:station:DISL:MBLA:1,2017-06-04T04:30:00Z,30.4367,-88.0117,82.9,1111122 
DISL,ioos:station:DISL:MBLA:1,2017-06-04T05:00:00Z,30.4367,-88.0117,69.84,1111122 
DISL,ioos:station:DISL:MBLA:1,2017-06-04T05:30:00Z,30.4367,-88.0117,71.23,1111122 
DISL,ioos:station:DISL:MBLA:1,2017-06-04T06:00:00Z,30.4367,-88.0117,74.01,1111122 
DISL,ioos:station:DISL:MBLA:1,2017-06-04T06:30:00Z,30.4367,-88.0117,74.75,1111122 
DISL,ioos:station:DISL:MBLA:1,2017-06-04T07:00:00Z,30.4367,-88.0117,79.49,1111122 
DISL,ioos:station:DISL:MBLA:1,2017-06-04T07:30:00Z,30.4367,-88.0117,77.15,1111122 
DISL,ioos:station:DISL:MBLA:1,2017-06-04T08:00:00Z,30.4367,-88.0117,75.35,1111122 
DISL,ioos:station:DISL:MBLA:1,2017-06-04T08:30:00Z,30.4367,-88.0117,76.33,1111122 
DISL,ioos:station:DISL:MBLA:1,2017-06-04T09:00:00Z,30.4367,-88.0117,81.5,1111122 
DISL,ioos:station:DISL:MBLA:1,2017-06-04T09:30:00Z,30.4367,-88.0117,83.4,1111122 
DISL,ioos:station:DISL:MBLA:1,2017-06-04T10:00:00Z,30.4367,-88.0117,82.1,1111122 
DISL,ioos:station:DISL:MBLA:1,2017-06-04T10:30:00Z,30.4367,-88.0117,83.0,1111122 
DISL,ioos:station:DISL:MBLA:1,2017-06-04T11:00:00Z,30.4367,-88.0117,82.1,1111122 
DISL,ioos:station:DISL:MBLA:1,2017-06-04T11:30:00Z,30.4367,-88.0117,81.7,1111122 
DISL,ioos:station:DISL:MBLA:1,2017-06-04T12:00:00Z,30.4367,-88.0117,80.9,1111122 
DISL,ioos:station:DISL:MBLA:1,2017-06-04T12:30:00Z,30.4367,-88.0117,82.6,1111122 
DISL,ioos:station:DISL:MBLA:1,2017-06-04T13:00:00Z,30.4367,-88.0117,81.5,1111122 
DISL,ioos:station:DISL:MBLA:1,2017-06-04T13:30:00Z,30.4367,-88.0117,79.42,1111122 
DISL,ioos:station:DISL:MBLA:1,2017-06-04T14:00:00Z,30.4367,-88.0117,78.46,1111122 
DISL,ioos:station:DISL:MBLA:1,2017-06-04T14:30:00Z,30.4367,-88.0117,78.53,1111122 
DISL,ioos:station:DISL:MBLA:1,2017-06-04T15:00:00Z,30.4367,-88.0117,77.72,1111122 
DISL,ioos:station:DISL:MBLA:1,2017-06-04T15:30:00Z,30.4367,-88.0117,76.36,1111122 
DISL,ioos:station:DISL:MBLA:1,2017-06-04T16:00:00Z,30.4367,-88.0117,72.39,1111122 
DISL,ioos:station:DISL:MBLA:1,2017-06-04T16:30:00Z,30.4367,-88.0117,73.51,1111122 
DISL,ioos:station:DISL:MBLA:1,2017-06-04T17:00:00Z,30.4367,-88.0117,75.48,1111122 
DISL,ioos:station:DISL:MBLA:1,2017-06-04T17:30:00Z,30.4367,-88.0117,75.95,1111122 
DISL,ioos:station:DISL:MBLA:1,2017-06-04T18:00:00Z,30.4367,-88.0117,73.0,1111122 
DISL,ioos:station:DISL:MBLA:1,2017-06-04T18:30:00Z,30.4367,-88.0117,75.78,1111122 
DISL,ioos:station:DISL:MBLA:1,2017-06-04T19:00:00Z,30.4367,-88.0117,73.92,1111122 
DISL,ioos:station:DISL:MBLA:1,2017-06-04T19:30:00Z,30.4367,-88.0117,74.19,1111122 
DISL,ioos:station:DISL:MBLA:1,2017-06-04T20:00:00Z,30.4367,-88.0117,74.63,1111122 
DISL,ioos:station:DISL:MBLA:1,2017-06-04T20:30:00Z,30.4367,-88.0117,72.35,1111122 
DISL,ioos:station:DISL:MBLA:1,2017-06-04T21:00:00Z,30.4367,-88.0117,71.82,1111122 
DISL,ioos:station:DISL:MBLA:1,2017-06-04T21:30:00Z,30.4367,-88.0117,67.28,1111122 
DISL,ioos:station:DISL:MBLA:1,2017-06-04T22:00:00Z,30.4367,-88.0117,70.25,1111122 
DISL,ioos:station:DISL:MBLA:1,2017-06-04T22:30:00Z,30.4367,-88.0117,67.68,1111122 
DISL,ioos:station:DISL:MBLA:1,2017-06-04T23:00:00Z,30.4367,-88.0117,68.12,1111122 
DISL,ioos:station:DISL:MBLA:1,2017-06-04T23:30:00Z,30.4367,-88.0117,66.84,1111122 
DISL,ioos:station:DISL:MBLA:1,2017-06-05T00:00:00Z,30.4367,-88.0117,73.55,1111122 
DISL,ioos:station:DISL:MBLA:1,2017-06-05T00:30:00Z,30.4367,-88.0117,73.75,1111122 
DISL,ioos:station:DISL:MBLA:1,2017-06-05T01:00:00Z,30.4367,-88.0117,73.55,1111122 
DISL,ioos:station:DISL:MBLA:1,2017-06-05T01:30:00Z,30.4367,-88.0117,75.41,1111122 
DISL,ioos:station:DISL:MBLA:1,2017-06-05T02:00:00Z,30.4367,-88.0117,71.75,1111122 
DISL,ioos:station:DISL:MBLA:1,2017-06-05T02:30:00Z,30.4367,-88.0117,71.04,1111122 
DISL,ioos:station:DISL:MBLA:1,2017-06-05T03:00:00Z,30.4367,-88.0117,70.33,1111122 
DISL,ioos:station:DISL:MBLA:1,2017-06-05T03:30:00Z,30.4367,-88.0117,74.36,1111122 
DISL,ioos:station:DISL:MBLA:1,2017-06-05T04:00:00Z,30.4367,-88.0117,73.75,1111122 
DISL,ioos:station:DISL:MBLA:1,2017-06-05T04:30:00Z,30.4367,-88.0117,74.5,1111122 
DISL,ioos:station:DISL:MBLA:1,2017-06-05T05:00:00Z,30.4367,-88.0117,77.48,1111122 
DISL,ioos:station:DISL:MBLA:1,2017-06-05T05:30:00Z,30.4367,-88.0117,78.02,1111122 
DISL,ioos:station:DISL:MBLA:1,2017-06-05T06:00:00Z,30.4367,-88.0117,79.17,1111122 
DISL,ioos:station:DISL:MBLA:1,2017-06-05T06:30:00Z,30.4367,-88.0117,79.07,1111122 
DISL,ioos:station:DISL:MBLA:1,2017-06-05T07:00:00Z,30.4367,-88.0117,80.2,1111122 
DISL,ioos:station:DISL:MBLA:1,2017-06-05T07:30:00Z,30.4367,-88.0117,80.3,1111122 
DISL,ioos:station:DISL:MBLA:1,2017-06-05T08:00:00Z,30.4367,-88.0117,79.82,1111122 
DISL,ioos:station:DISL:MBLA:1,2017-06-05T08:30:00Z,30.4367,-88.0117,80.2,1111122 
DISL,ioos:station:DISL:MBLA:1,2017-06-05T09:00:00Z,30.4367,-88.0117,79.72,1111122 
DISL,ioos:station:DISL:MBLA:1,2017-06-05T09:30:00Z,30.4367,-88.0117,78.97,1111122 
DISL,ioos:station:DISL:MBLA:1,2017-06-05T10:00:00Z,30.4367,-88.0117,74.09,1111122 
DISL,ioos:station:DISL:MBLA:1,2017-06-05T10:30:00Z,30.4367,-88.0117,75.44,1111122 
DISL,ioos:station:DISL:MBLA:1,2017-06-05T11:00:00Z,30.4367,-88.0117,75.75,1111122 
DISL,ioos:station:DISL:MBLA:1,2017-06-05T11:30:00Z,30.4367,-88.0117,76.09,1111122 
DISL,ioos:station:DISL:MBLA:1,2017-06-05T12:00:00Z,30.4367,-88.0117,72.77,1111122 
DISL,ioos:station:DISL:MBLA:1,2017-06-05T12:30:00Z,30.4367,-88.0117,73.17,1111122 
DISL,ioos:station:DISL:MBLA:1,2017-06-05T13:00:00Z,30.4367,-88.0117,72.56,1111122 
DISL,ioos:station:DISL:MBLA:1,2017-06-05T13:30:00Z,30.4367,-88.0117,70.84,1111122 
DISL,ioos:station:DISL:MBLA:1,2017-06-05T14:00:00Z,30.4367,-88.0117,71.48,1111122 
DISL,ioos:station:DISL:MBLA:1,2017-06-05T14:30:00Z,30.4367,-88.0117,73.51,1111122 
DISL,ioos:station:DISL:MBLA:1,2017-06-05T15:00:00Z,30.4367,-88.0117,76.73,1111122 
DISL,ioos:station:DISL:MBLA:1,2017-06-05T15:30:00Z,30.4367,-88.0117,73.58,1111122 
DISL,ioos:station:DISL:MBLA:1,2017-06-05T16:00:00Z,30.4367,-88.0117,76.6,1111122 
DISL,ioos:station:DISL:MBLA:1,2017-06-05T16:30:00Z,30.4367,-88.0117,74.83,1111122 
DISL,ioos:station:DISL:MBLA:1,2017-06-05T17:00:00Z,30.4367,-88.0117,74.83,1111122 
DISL,ioos:station:DISL:MBLA:1,2017-06-05T17:30:00Z,30.4367,-88.0117,74.39,1111122 
DISL,ioos:station:DISL:MBLA:1,2017-06-05T18:00:00Z,30.4367,-88.0117,73.92,1111122 
DISL,ioos:station:DISL:MBLA:1,2017-06-05T18:30:00Z,30.4367,-88.0117,76.77,1111122 
DISL,ioos:station:DISL:MBLA:1,2017-06-05T19:00:00Z,30.4367,-88.0117,72.23,1111122 
DISL,ioos:station:DISL:MBLA:1,2017-06-05T19:30:00Z,30.4367,-88.0117,73.0,1111122 
DISL,ioos:station:DISL:MBLA:1,2017-06-05T20:00:00Z,30.4367,-88.0117,76.32,1111122 
DISL,ioos:station:DISL:MBLA:1,2017-06-05T20:30:00Z,30.4367,-88.0117,73.74,1111122 
DISL,ioos:station:DISL:MBLA:1,2017-06-05T21:00:00Z,30.4367,-88.0117,69.71,1111122 
DISL,ioos:station:DISL:MBLA:1,2017-06-05T21:30:00Z,30.4367,-88.0117,71.5,1111122 
DISL,ioos:station:DISL:MBLA:1,2017-06-05T22:00:00Z,30.4367,-88.0117,71.74,1111122 
DISL,ioos:station:DISL:MBLA:1,2017-06-05T22:30:00Z,30.4367,-88.0117,70.99,1111122 
DISL,ioos:station:DISL:MBLA:1,2017-06-05T23:00:00Z,30.4367,-88.0117,71.71,1111122 
DISL,ioos:station:DISL:MBLA:1,2017-06-05T23:30:00Z,30.4367,-88.0117,74.39,1111122 
DISL,ioos:station:DISL:MBLA:1,2017-06-06T00:00:00Z,30.4367,-88.0117,72.12,1111122 
DISL,ioos:station:DISL:MBLA:1,2017-06-06T00:30:00Z,30.4367,-88.0117,72.6,1111122 
DISL,ioos:station:DISL:MBLA:1,2017-06-06T01:00:00Z,30.4367,-88.0117,71.55,1111122 
DISL,ioos:station:DISL:MBLA:1,2017-06-06T01:30:00Z,30.4367,-88.0117,71.65,1111122 
DISL,ioos:station:DISL:MBLA:1,2017-06-06T02:00:00Z,30.4367,-88.0117,72.33,1111122 
DISL,ioos:station:DISL:MBLA:1,2017-06-06T02:30:00Z,30.4367,-88.0117,72.9,1111122 
DISL,ioos:station:DISL:MBLA:1,2017-06-06T03:00:00Z,30.4367,-88.0117,75.31,1111122 
DISL,ioos:station:DISL:MBLA:1,2017-06-06T03:30:00Z,30.4367,-88.0117,75.48,1111122 
DISL,ioos:station:DISL:MBLA:1,2017-06-06T04:00:00Z,30.4367,-88.0117,74.7,1111122 
DISL,ioos:station:DISL:MBLA:1,2017-06-06T04:30:00Z,30.4367,-88.0117,76.8,1111122 
DISL,ioos:station:DISL:MBLA:1,2017-06-06T05:00:00Z,30.4367,-88.0117,75.89,1111122 
DISL,ioos:station:DISL:MBLA:1,2017-06-06T05:30:00Z,30.4367,-88.0117,75.51,1111122 
DISL,ioos:station:DISL:MBLA:1,2017-06-06T06:00:00Z,30.4367,-88.0117,76.63,1111122 
DISL,ioos:station:DISL:MBLA:1,2017-06-06T06:30:00Z,30.4367,-88.0117,77.95,1111122 
DISL,ioos:station:DISL:MBLA:1,2017-06-06T07:00:00Z,30.4367,-88.0117,75.04,1111122 
DISL,ioos:station:DISL:MBLA:1,2017-06-06T07:30:00Z,30.4367,-88.0117,78.9,1111122 
DISL,ioos:station:DISL:MBLA:1,2017-06-06T08:00:00Z,30.4367,-88.0117,81.0,1111122 
DISL,ioos:station:DISL:MBLA:1,2017-06-06T08:30:00Z,30.4367,-88.0117,77.7,1111122 
DISL,ioos:station:DISL:MBLA:1,2017-06-06T09:00:00Z,30.4367,-88.0117,77.67,1111122 
DISL,ioos:station:DISL:MBLA:1,2017-06-06T09:30:00Z,30.4367,-88.0117,76.72,1111122 
DISL,ioos:station:DISL:MBLA:1,2017-06-06T10:00:00Z,30.4367,-88.0117,77.4,1111122 
DISL,ioos:station:DISL:MBLA:1,2017-06-06T10:30:00Z,30.4367,-88.0117,80.6,1111122 
DISL,ioos:station:DISL:MBLA:1,2017-06-06T11:00:00Z,30.4367,-88.0117,78.83,1111122 
DISL,ioos:station:DISL:MBLA:1,2017-06-06T11:30:00Z,30.4367,-88.0117,77.47,1111122 
DISL,ioos:station:DISL:MBLA:1,2017-06-06T12:00:00Z,30.4367,-88.0117,80.5,1111122 
DISL,ioos:station:DISL:MBLA:1,2017-06-06T12:30:00Z,30.4367,-88.0117,78.08,1111122 
DISL,ioos:station:DISL:MBLA:1,2017-06-06T13:00:00Z,30.4367,-88.0117,81.6,1111122 
DISL,ioos:station:DISL:MBLA:1,2017-06-06T13:30:00Z,30.4367,-88.0117,82.7,1111122 
DISL,ioos:station:DISL:MBLA:1,2017-06-06T14:00:00Z,30.4367,-88.0117,81.2,1111122 
DISL,ioos:station:DISL:MBLA:1,2017-06-06T14:30:00Z,30.4367,-88.0117,81.9,1111122 
DISL,ioos:station:DISL:MBLA:1,2017-06-06T15:00:00Z,30.4367,-88.0117,82.0,1111122 
DISL,ioos:station:DISL:MBLA:1,2017-06-06T15:30:00Z,30.4367,-88.0117,79.95,1111122 
DISL,ioos:station:DISL:MBLA:1,2017-06-06T16:00:00Z,30.4367,-88.0117,75.75,1111122 
DISL,ioos:station:DISL:MBLA:1,2017-06-06T16:30:00Z,30.4367,-88.0117,75.07,1111122 
DISL,ioos:station:DISL:MBLA:1,2017-06-06T17:00:00Z,30.4367,-88.0117,74.7,1111122 
DISL,ioos:station:DISL:MBLA:1,2017-06-06T17:30:00Z,30.4367,-88.0117,73.68,1111122 
DISL,ioos:station:DISL:MBLA:1,2017-06-06T18:00:00Z,30.4367,-88.0117,70.53,1111122 
DISL,ioos:station:DISL:MBLA:1,2017-06-06T18:30:00Z,30.4367,-88.0117,76.09,1111122 
DISL,ioos:station:DISL:MBLA:1,2017-06-06T19:00:00Z,30.4367,-88.0117,77.82,1111122 
DISL,ioos:station:DISL:MBLA:1,2017-06-06T19:30:00Z,30.4367,-88.0117,85.0,1111122 
DISL,ioos:station:DISL:MBLA:1,2017-06-06T20:00:00Z,30.4367,-88.0117,86.4,1111122 
DISL,ioos:station:DISL:MBLA:1,2017-06-06T20:30:00Z,30.4367,-88.0117,81.9,1111122 
DISL,ioos:station:DISL:MBLA:1,2017-06-06T21:00:00Z,30.4367,-88.0117,77.73,1111122 
DISL,ioos:station:DISL:MBLA:1,2017-06-06T21:30:00Z,30.4367,-88.0117,72.9,1111122 
DISL,ioos:station:DISL:MBLA:1,2017-06-06T22:00:00Z,30.4367,-88.0117,71.04,1111122 
DISL,ioos:station:DISL:MBLA:1,2017-06-06T22:30:00Z,30.4367,-88.0117,73.45,1111122 
DISL,ioos:station:DISL:MBLA:1,2017-06-06T23:00:00Z,30.4367,-88.0117,76.6,1111122 
DISL,ioos:station:DISL:MBLA:1,2017-06-06T23:30:00Z,30.4367,-88.0117,78.09,1111122 
DISL,ioos:station:DISL:MBLA:1,2017-06-07T00:00:00Z,30.4367,-88.0117,83.2,1111122 